This is the latest recevied weather packets stored in our database for station/object W4BOD. If no packets are shown the sender has not sent any weather packets the latest 10 day(s).
| Time | Temp. | Humidity | Pressure | Rain* | Wind** | Luminosity | Snow |
|---|---|---|---|---|---|---|---|
| 1777684286 | 15° C | 52% | 1016.5 hPa | 0 mm | - | 0 W/m² | - |
| 1777683984 | 15° C | 51% | 1016.5 hPa | 0 mm | - | 0 W/m² | - |
| 1777683681 | 15° C | 51% | 1016.4 hPa | 0 mm | - | 0 W/m² | - |
| 1777683378 | 15° C | 49% | 1016 hPa | 0 mm | - | 0 W/m² | - |
| 1777683076 | 15.56° C | 49% | 1015.9 hPa | 0 mm | - | 0 W/m² | - |
| 1777682771 | 15.56° C | 47% | 1015.7 hPa | 0 mm | - | 1 W/m² | - |
| 1777682468 | 15.56° C | 47% | 1015.6 hPa | 0 mm | - | 2 W/m² | - |
| 1777682167 | 15.56° C | 47% | 1015.5 hPa | 0 mm | - | 3 W/m² | - |
| 1777681863 | 15.56° C | 45% | 1015.7 hPa | 0 mm | - | 4 W/m² | - |
| 1777681559 | 15.56° C | 46% | 1015.4 hPa | 0 mm | - | 7 W/m² | - |
| 1777681256 | 16.11° C | 44% | 1015.3 hPa | 0 mm | - | 12 W/m² | - |
| 1777680954 | 16.11° C | 43% | 1015.2 hPa | 0 mm | - | 16 W/m² | - |
| 1777680651 | 16.11° C | 42% | 1015.2 hPa | 0 mm | - | 18 W/m² | - |
| 1777680349 | 16.11° C | 42% | 1015 hPa | 0 mm | - | 18 W/m² | - |
| 1777680046 | 16.67° C | 42% | 1014.8 hPa | 0 mm | - | 20 W/m² | - |
| 1777679742 | 16.67° C | 41% | 1014.9 hPa | 0 mm | - | 22 W/m² | - |
| 1777679438 | 16.67° C | 40% | 1014.7 hPa | 0 mm | - | 34 W/m² | - |
| 1777679134 | 17.22° C | 39% | 1014.3 hPa | 0 mm | - | 66 W/m² | - |
| 1777678832 | 17.22° C | 40% | 1014.5 hPa | 0 mm | - | 61 W/m² | - |
| 1777678530 | 17.22° C | 39% | 1014.4 hPa | 0 mm | - | 62 W/m² | - |
| 1777678226 | 17.22° C | 40% | 1014.5 hPa | 0 mm | - | 65 W/m² | - |
| 1777677922 | 17.22° C | 40% | 1014.4 hPa | 0 mm | - | 71 W/m² | - |
| 1777677620 | 17.22° C | 39% | 1014.2 hPa | 0 mm | - | 75 W/m² | - |
| 1777677318 | 17.22° C | 38% | 1014.5 hPa | 0 mm | - | 80 W/m² | - |
| 1777677016 | 17.78° C | 38% | 1014.6 hPa | 0 mm | - | 92 W/m² | - |
* Rain latest hour (hover to see other rain measurements)
** Current wind speed in m/s (hover to see current wind gust speed)